Precipitable_Water
1.42 1.42 1.41 1.35 1.40 1.41 1.42 1.42 1.43 1.45 1.43 1.41 1.43 1.46 1.46 1.44 1.45 1.44 1.37 1.34 1.37 1.39 1.40 1.39 1.43 1.46 1.46 1.44 1.39 1.35 1.31 1.19 1.11 1.10 1.10 1.12 1.09 1.06 1.07 1.10 1.09 1.09 1.20 1.27 1.27 1.25 1.22 1.20 1.17 1.15 1.09 1.04 1.01 1.09 1.08 1.09 1.08 1.09 1.08 1.07 1.06 1.04 1.01 0.96 0.92 0.89 0.86 0.87 0.88 0.87 0.87 0.88 0.84 0.85 0.86 0.89 0.90 0.89 0.82 0.84 0.83 0.75 0.74 0.84 0.92
1.45 1.49 1.44 1.41 1.42 1.44 1.44 1.44 1.44 1.43 1.43 1.43 1.41 1.42 1.44 1.44 1.44 1.41 1.37 1.35 1.37 1.39 1.38 1.41 1.46 1.50 1.51 1.47 1.40 1.33 1.28 1.23 1.16 1.11 1.10 1.11 1.10 1.11 1.18 1.24 1.23 1.16 1.15 1.26 1.29 1.28 1.25 1.21 1.18 1.13 1.05 1.03 1.05 1.07 1.08 1.10 1.13 1.11 1.07 1.07 1.06 1.01 0.95 0.92 0.89 0.87 0.88 0.87 0.86 0.82 0.80 0.82 0.80 0.82 0.81 0.82 0.86 0.84 0.77 0.73 0.82 0.74 0.75 0.79 0.84
1.55 1.55 1.47 1.45 1.46 1.46 1.46 1.45 1.43 1.43 1.42 1.41 1.40 1.39 1.40 1.43 1.43 1.39 1.35 1.33 1.37 1.37 1.38 1.46 1.53 1.55 1.53 1.46 1.39 1.31 1.23 1.20 1.16 1.13 1.16 1.21 1.24 1.25 1.27 1.30 1.30 1.25 1.16 1.17 1.21 1.21 1.19 1.18 1.15 1.11 1.08 1.08 1.06 1.06 1.07 1.08 1.09 1.08 1.07 1.05 1.02 0.98 0.94 0.93 0.89 0.88 0.90 0.90 0.87 0.79 0.71 0.72 0.79 0.80 0.84 0.86 0.85 0.82 0.76 0.74 0.79 0.80 0.77 0.76 0.77
1.56 1.58 1.53 1.48 1.47 1.47 1.46 1.43 1.42 1.41 1.40 1.39 1.36 1.36 1.38 1.41 1.42 1.39 1.33 1.32 1.36 1.38 1.44 1.53 1.58 1.58 1.51 1.42 1.35 1.27 1.21 1.14 1.09 1.10 1.15 1.19 1.22 1.28 1.32 1.35 1.36 1.34 1.25 1.17 1.14 1.13 1.14 1.16 1.15 1.11 1.07 1.06 1.04 1.05 1.05 1.06 1.05 1.04 1.02 1.01 0.99 1.00 0.96 0.92 0.95 0.97 1.03 1.04 1.01 0.99 0.90 0.85 0.83 0.86 0.85 0.86 0.91 0.89 0.79 0.76 0.77 0.79 0.83 0.84 0.83
1.60 1.56 1.53 1.45 1.44 1.42 1.42 1.42 1.40 1.37 1.38 1.36 1.36 1.36 1.37 1.40 1.41 1.37 1.32 1.32 1.35 1.40 1.51 1.61 1.57 1.54 1.45 1.35 1.26 1.20 1.14 1.11 1.10 1.11 1.13 1.17 1.21 1.22 1.24 1.28 1.34 1.37 1.27 1.18 1.13 1.11 1.11 1.14 1.15 1.10 1.06 1.04 1.03 1.03 1.03 1.04 1.04 1.00 0.99 1.00 1.01 0.99 0.97 0.97 1.00 1.03 1.06 1.11 1.11 1.11 0.95 0.90 0.82 0.83 0.83 0.86 0.91 0.89 0.82 0.75 0.78 0.78 0.79 0.82 0.84
1.54 1.50 1.41 1.41 1.41 1.43 1.41 1.41 1.40 1.37 1.36 1.36 1.35 1.35 1.36 1.37 1.39 1.35 1.32 1.32 1.37 1.49 1.59 1.62 1.53 1.43 1.32 1.20 1.12 1.11 1.13 1.14 1.13 1.13 1.14 1.16 1.18 1.18 1.20 1.24 1.26 1.29 1.22 1.19 1.14 1.11 1.11 1.13 1.12 1.08 1.05 1.03 1.01 1.01 1.01 1.02 0.99 0.99 1.00 0.99 0.98 0.97 0.99 0.99 1.04 1.09 1.13 1.14 1.17 1.17 1.07 1.00 0.90 0.87 0.86 0.88 0.89 0.88 0.86 0.76 0.78 0.80 0.82 0.83 0.80
1.52 1.44 1.43 1.42 1.43 1.43 1.43 1.41 1.39 1.37 1.36 1.34 1.34 1.35 1.35 1.36 1.35 1.33 1.33 1.36 1.43 1.59 1.63 1.54 1.44 1.30 1.18 1.14 1.15 1.17 1.20 1.21 1.21 1.19 1.17 1.14 1.12 1.13 1.13 1.14 1.20 1.19 1.19 1.17 1.15 1.12 1.12 1.14 1.14 1.08 1.05 1.03 1.01 1.01 1.00 1.00 1.01 1.01 0.98 0.97 0.94 0.92 0.97 1.03 1.07 1.13 1.13 1.15 1.20 1.15 1.06 0.96 0.93 0.87 0.87 0.86 0.85 0.87 0.86 0.78 0.77 0.80 0.80 0.80 0.78
1.50 1.44 1.43 1.44 1.44 1.43 1.43 1.41 1.39 1.37 1.36 1.34 1.32 1.32 1.35 1.36 1.35 1.35 1.38 1.41 1.50 1.59 1.53 1.43 1.31 1.22 1.21 1.24 1.26 1.26 1.26 1.27 1.25 1.27 1.28 1.23 1.17 1.15 1.13 1.11 1.13 1.15 1.17 1.18 1.16 1.13 1.12 1.14 1.16 1.11 1.06 1.04 1.02 1.01 1.00 1.01 1.01 1.01 0.98 0.95 0.91 0.93 0.97 1.02 1.06 1.12 1.20 1.25 1.21 1.12 1.06 1.01 0.94 0.88 0.91 0.86 0.88 0.90 0.92 0.88 0.75 0.79 0.82 0.82 0.81
1.42 1.42 1.44 1.46 1.46 1.42 1.40 1.40 1.40 1.38 1.36 1.34 1.33 1.33 1.32 1.35 1.37 1.39 1.43 1.45 1.50 1.45 1.37 1.30 1.27 1.29 1.31 1.33 1.35 1.37 1.37 1.39 1.38 1.34 1.36 1.35 1.29 1.21 1.17 1.12 1.10 1.11 1.14 1.15 1.16 1.15 1.14 1.15 1.16 1.15 1.10 1.07 1.04 1.00 1.00 1.01 1.02 0.99 0.98 0.95 0.92 0.93 1.00 1.02 1.08 1.14 1.19 1.24 1.18 1.19 1.15 1.06 0.94 0.91 0.92 0.91 0.90 0.93 0.94 0.91 0.80 0.74 0.75 0.76 0.77
1.42 1.43 1.47 1.45 1.41 1.40 1.39 1.39 1.40 1.40 1.37 1.35 1.35 1.34 1.34 1.35 1.38 1.43 1.45 1.42 1.33 1.30 1.29 1.30 1.34 1.38 1.42 1.44 1.46 1.49 1.53 1.55 1.55 1.50 1.49 1.46 1.42 1.35 1.25 1.18 1.17 1.16 1.16 1.17 1.14 1.14 1.14 1.15 1.18 1.18 1.16 1.08 1.05 1.03 1.04 1.03 0.99 1.00 0.99 0.96 0.92 0.94 0.99 1.06 1.10 1.19 1.26 1.16 1.13 1.13 1.13 1.10 0.95 0.88 0.83 0.88 0.91 0.93 0.92 0.85 0.75 0.78 0.78 0.75 0.75
1.48 1.45 1.46 1.46 1.38 1.37 1.38 1.40 1.41 1.41 1.41 1.39 1.37 1.38 1.40 1.41 1.43 1.43 1.41 1.30 1.25 1.30 1.34 1.38 1.43 1.48 1.52 1.52 1.53 1.55 1.57 1.60 1.59 1.57 1.52 1.52 1.46 1.41 1.38 1.28 1.22 1.20 1.19 1.19 1.19 1.16 1.14 1.16 1.18 1.21 1.17 1.10 1.09 1.10 1.11 1.07 1.05 1.03 1.00 0.97 0.94 0.97 1.01 1.05 1.11 1.18 1.05 0.96 0.85 0.85 0.91 0.93 0.94 0.86 0.89 0.88 0.87 0.87 0.84 0.85 0.82 0.78 0.74 0.75 0.77
1.49 1.48 1.48 1.46 1.38 1.36 1.37 1.41 1.42 1.42 1.43 1.44 1.44 1.43 1.45 1.46 1.45 1.42 1.35 1.31 1.32 1.36 1.42 1.47 1.53 1.59 1.58 1.57 1.58 1.58 1.60 1.62 1.64 1.60 1.56 1.57 1.46 1.42 1.48 1.46 1.29 1.23 1.22 1.20 1.17 1.16 1.14 1.14 1.18 1.17 1.14 1.12 1.12 1.15 1.13 1.11 1.09 1.07 1.06 1.02 1.00 0.99 1.03 1.04 1.12 1.22 1.18 1.15 1.14 1.14 1.09 1.01 0.94 0.93 0.92 0.90 0.89 0.88 0.85 0.87 0.83 0.81 0.77 0.75 0.77
1.54 1.52 1.49 1.50 1.37 1.35 1.37 1.39 1.42 1.46 1.47 1.48 1.48 1.47 1.45 1.45 1.45 1.41 1.37 1.38 1.38 1.44 1.52 1.60 1.64 1.67 1.71 1.67 1.62 1.59 1.58 1.59 1.60 1.60 1.63 1.54 1.44 1.44 1.50 1.53 1.49 1.32 1.24 1.24 1.24 1.23 1.25 1.24 1.22 1.19 1.14 1.13 1.14 1.12 1.10 1.08 1.07 1.08 1.07 1.07 1.04 1.05 1.06 1.09 1.16 1.22 1.14 1.12 1.12 1.09 0.98 0.89 0.90 0.95 0.95 0.95 0.91 0.89 0.88 0.87 0.81 0.77 0.79 0.80 0.79
1.54 1.54 1.54 1.45 1.41 1.36 1.35 1.38 1.42 1.48 1.50 1.50 1.51 1.50 1.48 1.46 1.43 1.38 1.38 1.40 1.47 1.56 1.64 1.67 1.68 1.69 1.66 1.67 1.62 1.59 1.55 1.55 1.52 1.54 1.58 1.50 1.41 1.40 1.43 1.48 1.39 1.34 1.34 1.27 1.25 1.24 1.23 1.28 1.27 1.24 1.18 1.15 1.16 1.15 1.10 1.06 1.06 1.08 1.07 1.04 1.01 1.05 1.04 1.07 1.14 1.20 1.09 1.11 1.12 1.10 1.07 0.97 0.94 0.98 0.96 0.98 0.95 0.92 0.87 0.85 0.82 0.77 0.79 0.79 0.78
1.54 1.55 1.48 1.44 1.41 1.38 1.37 1.38 1.43 1.48 1.52 1.54 1.54 1.52 1.48 1.43 1.41 1.42 1.46 1.52 1.57 1.63 1.69 1.69 1.70 1.67 1.67 1.64 1.60 1.54 1.50 1.50 1.52 1.54 1.57 1.48 1.36 1.37 1.37 1.31 1.28 1.26 1.27 1.23 1.19 1.17 1.17 1.20 1.22 1.20 1.18 1.15 1.13 1.12 1.09 1.08 1.05 1.03 1.02 1.04 1.02 1.05 1.08 1.12 1.27 1.22 1.13 1.12 1.17 1.16 1.04 0.93 0.97 0.98 0.99 0.98 0.96 0.89 0.88 0.85 0.82 0.79 0.74 0.75 0.76
1.63 1.55 1.51 1.45 1.40 1.42 1.41 1.45 1.50 1.51 1.52 1.53 1.53 1.52 1.49 1.47 1.48 1.52 1.56 1.58 1.62 1.67 1.71 1.71 1.67 1.63 1.61 1.56 1.50 1.48 1.50 1.47 1.48 1.51 1.52 1.41 1.37 1.36 1.31 1.28 1.21 1.17 1.15 1.13 1.10 1.09 1.13 1.13 1.16 1.16 1.12 1.10 1.10 1.10 1.07 1.06 1.02 1.01 1.04 1.08 1.07 1.07 1.13 1.22 1.28 1.20 1.11 1.10 1.09 1.10 1.04 0.92 0.99 0.99 0.99 1.01 0.96 0.91 0.88 0.87 0.85 0.85 0.80 0.76 0.78
1.59 1.56 1.49 1.45 1.43 1.41 1.43 1.49 1.55 1.57 1.55 1.58 1.58 1.57 1.57 1.56 1.57 1.59 1.61 1.62 1.65 1.72 1.72 1.67 1.63 1.60 1.53 1.44 1.42 1.45 1.46 1.45 1.46 1.49 1.50 1.42 1.42 1.42 1.43 1.40 1.23 1.15 1.08 1.05 1.04 1.04 1.08 1.10 1.11 1.11 1.07 1.04 1.06 1.05 1.03 1.04 1.01 1.01 1.06 1.10 1.08 1.08 1.16 1.19 1.21 1.26 1.27 1.16 1.17 1.15 1.06 0.97 0.97 0.99 0.99 1.00 0.97 0.94 0.93 0.90 0.88 0.84 0.81 0.80 0.78
1.57 1.52 1.47 1.48 1.46 1.49 1.52 1.52 1.58 1.60 1.61 1.63 1.66 1.66 1.68 1.71 1.73 1.70 1.66 1.67 1.71 1.73 1.73 1.67 1.60 1.54 1.45 1.39 1.41 1.43 1.44 1.45 1.46 1.48 1.47 1.43 1.42 1.43 1.43 1.37 1.25 1.16 1.12 1.10 1.07 1.07 1.05 1.06 1.06 1.07 1.06 1.02 0.98 0.97 1.00 1.02 1.03 1.06 1.08 1.11 1.11 1.10 1.11 1.16 1.28 1.28 1.18 1.20 1.18 1.17 1.06 0.93 0.97 0.98 0.99 0.98 0.98 0.96 0.94 0.95 0.90 0.85 0.82 0.75 0.72
1.53 1.49 1.49 1.49 1.47 1.53 1.60 1.63 1.63 1.64 1.70 1.62 1.71 1.80 1.78 1.83 1.84 1.77 1.73 1.71 1.74 1.70 1.66 1.63 1.58 1.50 1.40 1.40 1.43 1.44 1.45 1.47 1.49 1.47 1.43 1.40 1.38 1.38 1.37 1.30 1.21 1.17 1.18 1.16 1.13 1.08 1.05 1.04 0.99 1.01 1.02 1.03 0.98 1.01 1.00 1.01 1.04 1.07 1.08 1.13 1.11 1.08 1.09 1.15 1.20 1.25 1.16 1.20 1.17 1.18 1.05 0.98 1.01 1.02 1.00 0.99 0.99 0.98 0.98 0.92 0.91 0.88 0.85 0.81 0.74
1.55 1.52 1.49 1.52 1.52 1.55 1.61 1.63 1.63 1.69 1.75 1.71 1.74 1.72 1.78 1.78 1.79 1.71 1.74 1.73 1.72 1.65 1.60 1.54 1.47 1.42 1.43 1.45 1.47 1.49 1.50 1.51 1.48 1.46 1.43 1.39 1.38 1.40 1.35 1.28 1.23 1.22 1.20 1.19 1.19 1.16 1.08 1.03 1.01 0.96 0.96 0.99 0.98 1.00 1.00 1.00 1.00 1.04 1.07 1.11 1.11 1.11 1.12 1.17 1.21 1.20 1.25 1.25 1.19 1.17 1.00 1.03 1.05 1.03 1.01 1.01 1.01 0.98 0.97 0.95 0.94 0.91 0.88 0.82 0.79
1.43 1.45 1.50 1.54 1.53 1.54 1.55 1.61 1.71 1.74 1.66 1.67 1.67 1.75 1.79 1.70 1.69 1.68 1.74 1.72 1.69 1.59 1.48 1.47 1.45 1.46 1.50 1.50 1.54 1.56 1.56 1.53 1.47 1.48 1.41 1.42 1.40 1.39 1.31 1.27 1.26 1.26 1.22 1.19 1.18 1.21 1.20 1.12 1.00 0.94 0.91 0.90 0.93 0.93 0.96 0.99 0.98 1.01 1.06 1.09 1.10 1.10 1.18 1.29 1.22 1.21 1.17 1.15 1.18 1.13 1.06 1.05 1.11 1.08 1.03 1.02 0.98 0.97 0.98 0.98 0.95 0.91 0.92 0.90 0.84
1.32 1.37 1.47 1.53 1.48 1.51 1.61 1.65 1.66 1.72 1.77 1.88 1.81 1.82 1.70 1.74 1.74 1.70 1.67 1.65 1.58 1.51 1.50 1.52 1.53 1.57 1.59 1.63 1.64 1.70 1.60 1.52 1.57 1.45 1.43 1.43 1.39 1.34 1.29 1.28 1.27 1.25 1.23 1.18 1.17 1.17 1.18 1.17 1.12 0.99 0.91 0.87 0.86 0.87 0.89 0.95 0.99 0.98 1.03 1.09 1.09 1.13 1.23 1.22 1.19 1.22 1.25 1.20 1.20 1.09 1.05 1.07 1.08 1.08 1.06 1.03 1.02 1.00 0.99 0.98 0.98 0.98 0.97 0.93 0.88
1.28 1.35 1.46 1.50 1.54 1.62 1.63 1.59 1.67 1.67 1.74 1.76 1.68 1.68 1.69 1.67 1.62 1.63 1.63 1.60 1.57 1.57 1.59 1.60 1.64 1.65 1.64 1.64 1.66 1.69 1.64 1.65 1.62 1.56 1.59 1.49 1.44 1.36 1.33 1.31 1.28 1.24 1.22 1.20 1.17 1.17 1.17 1.14 1.12 1.11 1.02 0.96 0.99 0.99 0.99 0.93 0.92 0.98 1.03 1.06 1.11 1.20 1.28 1.19 1.21 1.19 1.24 1.23 1.18 1.13 1.03 1.08 1.06 1.05 1.07 1.03 0.97 0.98 0.99 0.98 0.97 0.99 0.97 0.97 0.90
1.31 1.42 1.52 1.53 1.55 1.58 1.60 1.69 1.62 1.64 1.63 1.69 1.71 1.70 1.63 1.56 1.57 1.58 1.60 1.58 1.62 1.63 1.62 1.58 1.59 1.56 1.57 1.57 1.60 1.62 1.63 1.65 1.70 1.59 1.59 1.51 1.47 1.44 1.38 1.34 1.29 1.27 1.23 1.21 1.20 1.19 1.17 1.17 1.14 1.10 1.13 1.15 1.11 1.03 0.98 1.01 1.03 0.97 1.02 1.06 1.09 1.28 1.31 1.21 1.17 1.25 1.21 1.20 1.13 1.09 1.04 1.06 1.08 1.05 1.05 1.04 1.00 0.96 1.00 1.02 0.99 1.00 1.01 0.96 0.93
1.41 1.43 1.51 1.51 1.53 1.67 1.64 1.71 1.75 1.65 1.63 1.69 1.63 1.56 1.58 1.55 1.55 1.56 1.57 1.61 1.60 1.60 1.58 1.53 1.55 1.52 1.53 1.56 1.48 1.52 1.50 1.46 1.51 1.44 1.50 1.52 1.51 1.48 1.43 1.39 1.37 1.32 1.24 1.38 1.33 1.32 1.25 1.26 1.18 1.15 1.21 1.23 1.21 1.13 1.04 1.02 1.04 1.02 1.08 1.16 1.22 1.27 1.27 1.23 1.30 1.28 1.22 1.21 1.12 1.06 1.05 1.07 1.07 1.04 1.02 1.03 0.98 1.01 1.01 1.00 1.00 0.97 0.97 0.96 0.93
1.37 1.42 1.49 1.40 1.41 1.54 1.55 1.65 1.66 1.60 1.57 1.61 1.51 1.46 1.48 1.49 1.49 1.57 1.59 1.62 1.61 1.59 1.56 1.55 1.55 1.55 1.56 1.58 1.65 1.65 1.60 1.53 1.46 1.47 1.52 1.51 1.54 1.53 1.49 1.47 1.44 1.44 1.27 1.43 1.46 1.51 1.45 1.47 1.36 1.30 1.30 1.24 1.21 1.17 1.15 1.06 0.99 1.05 1.12 1.17 1.22 1.23 1.27 1.22 1.27 1.30 1.24 1.23 1.14 1.07 1.07 1.06 1.05 1.07 1.03 1.02 1.02 1.04 1.02 1.03 1.01 0.97 0.97 0.94 0.92
1.36 1.40 1.48 1.49 1.48 1.56 1.61 1.61 1.63 1.61 1.56 1.55 1.54 1.52 1.50 1.51 1.52 1.52 1.55 1.53 1.62 1.58 1.51 1.51 1.54 1.55 1.59 1.64 1.56 1.50 1.54 1.49 1.41 1.42 1.38 1.42 1.44 1.54 1.54 1.55 1.51 1.47 1.29 1.40 1.39 1.42 1.44 1.44 1.51 1.42 1.32 1.24 1.17 1.16 1.14 1.14 1.14 0.98 1.14 1.13 1.22 1.22 1.25 1.23 1.26 1.27 1.24 1.26 1.16 1.12 1.10 1.09 1.08 1.06 1.06 1.03 1.02 1.06 1.05 1.02 0.99 0.97 0.95 0.97 0.95
1.33 1.32 1.39 1.40 1.48 1.50 1.54 1.50 1.56 1.46 1.46 1.52 1.51 1.51 1.53 1.51 1.52 1.52 1.57 1.55 1.51 1.44 1.48 1.48 1.50 1.56 1.60 1.61 1.58 1.56 1.52 1.45 1.44 1.42 1.38 1.38 1.34 1.42 1.50 1.54 1.48 1.44 1.40 1.37 1.40 1.37 1.36 1.45 1.42 1.40 1.29 1.23 1.18 1.14 1.14 1.16 1.20 1.20 1.16 1.18 1.19 1.21 1.20 1.21 1.21 1.30 1.27 1.30 1.21 1.16 1.14 1.13 1.12 1.08 1.07 1.06 1.01 1.06 1.07 1.04 1.02 0.97 0.96 0.99 0.98
1.17 1.27 1.27 1.30 1.31 1.40 1.47 1.48 1.43 1.45 1.45 1.50 1.44 1.46 1.48 1.46 1.52 1.56 1.54 1.57 1.56 1.53 1.46 1.39 1.43 1.49 1.56 1.54 1.51 1.48 1.50 1.41 1.35 1.35 1.36 1.41 1.43 1.45 1.49 1.56 1.54 1.56 1.44 1.37 1.38 1.38 1.43 1.46 1.45 1.42 1.32 1.25 1.20 1.18 1.16 1.13 1.07 1.23 1.23 1.21 1.27 1.26 1.27 1.27 1.31 1.33 1.33 1.36 1.24 1.19 1.16 1.16 1.14 1.10 1.06 1.04 1.02 1.05 1.07 1.05 1.03 1.00 0.93 0.93 0.99
1.27 1.28 1.24 1.27 1.38 1.40 1.42 1.39 1.41 1.41 1.41 1.45 1.45 1.46 1.45 1.45 1.52 1.51 1.47 1.52 1.54 1.48 1.42 1.40 1.44 1.47 1.50 1.49 1.46 1.45 1.45 1.41 1.35 1.37 1.37 1.34 1.38 1.41 1.41 1.44 1.46 1.48 1.46 1.41 1.42 1.52 1.48 1.53 1.50 1.43 1.29 1.27 1.21 1.20 1.15 1.11 1.09 1.17 1.26 1.27 1.30 1.32 1.32 1.33 1.31 1.32 1.37 1.35 1.31 1.20 1.20 1.19 1.17 1.13 1.06 1.02 1.01 1.03 1.04 1.05 1.03 1.01 0.93 0.90 0.99
1.29 1.23 1.24 1.30 1.39 1.37 1.37 1.44 1.46 1.46 1.43 1.43 1.44 1.41 1.45 1.46 1.45 1.47 1.45 1.45 1.48 1.42 1.40 1.41 1.40 1.43 1.45 1.42 1.40 1.39 1.46 1.45 1.38 1.32 1.27 1.33 1.32 1.34 1.34 1.35 1.34 1.39 1.45 1.44 1.44 1.43 1.45 1.48 1.58 1.44 1.31 1.27 1.22 1.16 1.17 1.09 1.14 1.13 1.19 1.21 1.22 1.30 1.30 1.31 1.29 1.30 1.36 1.39 1.36 1.27 1.23 1.22 1.21 1.18 1.10 1.03 1.02 1.00 0.98 0.99 0.98 0.99 0.98 0.96 0.92
1.24 1.24 1.30 1.37 1.39 1.37 1.37 1.42 1.47 1.47 1.47 1.45 1.42 1.42 1.44 1.44 1.40 1.43 1.41 1.44 1.42 1.37 1.39 1.39 1.39 1.37 1.37 1.37 1.36 1.37 1.42 1.40 1.37 1.34 1.32 1.32 1.33 1.34 1.33 1.30 1.33 1.43 1.44 1.46 1.45 1.42 1.36 1.41 1.46 1.53 1.38 1.32 1.23 1.20 1.23 1.13 1.15 1.11 1.15 1.23 1.20 1.23 1.30 1.28 1.28 1.32 1.37 1.44 1.47 1.40 1.34 1.31 1.28 1.23 1.18 1.13 1.06 1.01 0.99 0.97 0.99 0.98 0.99 0.98 0.96
1.26 1.31 1.36 1.37 1.35 1.38 1.39 1.42 1.47 1.47 1.43 1.42 1.38 1.39 1.45 1.42 1.34 1.34 1.35 1.35 1.28 1.28 1.29 1.31 1.33 1.34 1.35 1.31 1.30 1.31 1.37 1.37 1.37 1.38 1.39 1.39 1.36 1.37 1.36 1.29 1.35 1.43 1.47 1.46 1.45 1.43 1.45 1.43 1.52 1.52 1.44 1.39 1.29 1.22 1.20 1.21 1.18 1.14 1.14 1.18 1.24 1.21 1.28 1.31 1.29 1.33 1.39 1.46 1.47 1.45 1.41 1.37 1.34 1.31 1.29 1.25 1.21 1.19 1.13 1.06 1.02 1.03 1.01 1.02 1.01
1.26 1.39 1.40 1.34 1.35 1.38 1.43 1.44 1.45 1.43 1.46 1.44 1.36 1.35 1.38 1.36 1.35 1.30 1.29 1.28 1.25 1.24 1.30 1.34 1.32 1.27 1.31 1.31 1.29 1.32 1.35 1.36 1.31 1.30 1.33 1.36 1.37 1.37 1.33 1.37 1.44 1.44 1.45 1.45 1.44 1.45 1.45 1.51 1.45 1.41 1.35 1.36 1.30 1.25 1.22 1.17 1.19 1.15 1.18 1.14 1.16 1.21 1.18 1.23 1.22 1.35 1.37 1.45 1.46 1.49 1.50 1.50 1.40 1.37 1.32 1.27 1.24 1.22 1.22 1.19 1.17 1.14 1.08 1.06 1.05
1.29 1.37 1.32 1.33 1.33 1.34 1.39 1.41 1.44 1.42 1.44 1.39 1.38 1.35 1.38 1.32 1.29 1.25 1.27 1.27 1.27 1.25 1.26 1.25 1.25 1.26 1.26 1.24 1.28 1.30 1.33 1.35 1.34 1.32 1.32 1.34 1.35 1.33 1.34 1.38 1.43 1.41 1.40 1.47 1.47 1.44 1.46 1.39 1.36 1.34 1.28 1.34 1.45 1.31 1.26 1.21 1.17 1.16 1.18 1.20 1.17 1.21 1.21 1.22 1.25 1.35 1.44 1.45 1.42 1.40 1.36 1.37 1.43 1.44 1.39 1.29 1.28 1.25 1.26 1.27 1.26 1.24 1.21 1.18 1.14
1.28 1.32 1.31 1.36 1.36 1.37 1.40 1.42 1.41 1.41 1.38 1.37 1.36 1.30 1.32 1.29 1.26 1.22 1.25 1.26 1.23 1.21 1.21 1.20 1.18 1.21 1.21 1.21 1.26 1.28 1.30 1.33 1.34 1.33 1.29 1.31 1.33 1.38 1.41 1.40 1.40 1.45 1.41 1.43 1.43 1.34 1.35 1.37 1.36 1.29 1.24 1.27 1.30 1.25 1.35 1.27 1.26 1.24 1.23 1.27 1.29 1.27 1.18 1.32 1.30 1.35 1.41 1.32 1.33 1.32 1.31 1.30 1.38 1.37 1.40 1.40 1.40 1.37 1.33 1.30 1.29 1.28 1.26 1.24 1.24
1.27 1.28 1.28 1.33 1.32 1.34 1.37 1.39 1.37 1.36 1.35 1.33 1.27 1.28 1.30 1.27 1.24 1.16 1.18 1.14 1.13 1.11 1.13 1.09 1.09 1.10 1.12 1.14 1.21 1.25 1.27 1.33 1.34 1.35 1.28 1.25 1.37 1.40 1.45 1.45 1.44 1.39 1.37 1.39 1.33 1.35 1.34 1.33 1.39 1.35 1.37 1.26 1.29 1.22 1.33 1.32 1.29 1.29 1.27 1.29 1.29 1.27 1.29 1.34 1.33 1.31 1.35 1.30 1.35 1.40 1.33 1.29 1.29 1.35 1.42 1.36 1.33 1.33 1.29 1.33 1.34 1.32 1.30 1.29 1.27
1.28 1.30 1.30 1.32 1.33 1.32 1.34 1.37 1.37 1.39 1.35 1.25 1.23 1.24 1.26 1.23 1.15 1.14 1.11 1.12 1.10 1.12 1.08 1.08 1.07 1.05 1.05 1.10 1.11 1.13 1.19 1.24 1.27 1.29 1.28 1.27 1.31 1.39 1.38 1.40 1.30 1.34 1.38 1.35 1.35 1.37 1.36 1.36 1.33 1.36 1.38 1.38 1.33 1.25 1.22 1.32 1.31 1.32 1.28 1.25 1.23 1.23 1.28 1.27 1.33 1.32 1.28 1.28 1.27 1.33 1.33 1.29 1.27 1.32 1.32 1.33 1.41 1.42 1.36 1.31 1.32 1.31 1.32 1.33 1.31
1.27 1.31 1.29 1.29 1.32 1.33 1.31 1.35 1.32 1.30 1.31 1.27 1.25 1.23 1.22 1.18 1.17 1.13 1.06 1.06 1.04 1.01 1.04 0.99 1.02 1.05 1.07 1.15 1.10 1.12 1.12 1.15 1.17 1.21 1.20 1.27 1.33 1.26 1.27 1.33 1.33 1.30 1.29 1.32 1.33 1.37 1.40 1.38 1.32 1.31 1.36 1.38 1.35 1.32 1.28 1.26 1.24 1.23 1.23 1.26 1.26 1.29 1.28 1.30 1.28 1.29 1.28 1.27 1.25 1.27 1.31 1.29 1.31 1.33 1.28 1.33 1.39 1.41 1.42 1.41 1.41 1.43 1.38 1.27 1.29
1.25 1.29 1.31 1.30 1.28 1.32 1.29 1.30 1.31 1.32 1.32 1.29 1.24 1.18 1.12 1.06 1.02 1.04 1.01 0.95 0.97 0.97 0.96 0.98 0.98 0.97 0.99 1.02 1.07 1.08 1.16 1.12 1.14 1.17 1.17 1.21 1.20 1.26 1.26 1.31 1.31 1.30 1.28 1.21 1.25 1.28 1.29 1.28 1.26 1.29 1.29 1.29 1.30 1.22 1.31 1.27 1.25 1.25 1.25 1.22 1.24 1.25 1.27 1.26 1.27 1.25 1.32 1.26 1.29 1.27 1.25 1.30 1.35 1.39 1.40 1.39 1.46 1.45 1.42 1.41 1.44 1.42 1.33 1.27 1.31
1.25 1.27 1.27 1.26 1.25 1.25 1.23 1.25 1.26 1.33 1.29 1.18 1.14 1.08 1.03 1.01 1.02 0.98 0.91 0.85 0.83 0.87 0.88 0.91 0.93 0.96 1.00 1.06 1.10 1.11 1.11 1.13 1.12 1.14 1.15 1.18 1.19 1.24 1.28 1.29 1.30 1.23 1.25 1.27 1.31 1.30 1.31 1.33 1.31 1.26 1.25 1.19 1.18 1.32 1.34 1.33 1.18 1.06 1.15 1.20 1.21 1.27 1.22 1.27 1.27 1.30 1.30 1.34 1.31 1.30 1.32 1.31 1.37 1.41 1.39 1.42 1.40 1.44 1.45 1.35 1.37 1.43 1.41 1.42 1.39
1.17 1.21 1.20 1.21 1.25 1.22 1.18 1.23 1.22 1.30 1.22 1.18 1.11 1.07 1.05 1.02 0.99 0.91 0.89 0.92 0.81 0.80 0.75 0.83 0.89 0.97 1.03 1.07 1.12 1.19 1.11 1.10 1.09 1.12 1.14 1.15 1.20 1.27 1.20 1.19 1.22 1.17 1.21 1.25 1.28 1.26 1.26 1.24 1.26 1.18 1.21 1.16 1.19 1.35 1.33 1.22 1.06 1.02 1.01 1.03 1.10 1.17 1.22 1.28 1.31 1.30 1.31 1.29 1.29 1.32 1.30 1.29 1.33 1.32 1.42 1.41 1.41 1.37 1.39 1.39 1.43 1.40 1.38 1.36 1.38
1.12 1.15 1.16 1.17 1.23 1.18 1.14 1.17 1.26 1.22 1.22 1.19 1.09 1.07 1.06 1.04 1.00 0.95 0.98 0.95 1.00 0.99 0.91 0.80 0.81 0.91 1.00 1.04 1.06 1.09 1.12 1.19 1.14 1.11 1.10 1.12 1.10 1.09 1.12 1.15 1.20 1.19 1.19 1.20 1.20 1.23 1.23 1.18 1.18 1.17 1.16 1.23 1.16 1.30 1.29 1.21 1.03 1.06 1.12 1.06 1.00 0.94 1.06 1.12 1.15 1.26 1.34 1.34 1.31 1.26 1.31 1.31 1.34 1.39 1.38 1.40 1.40 1.41 1.38 1.40 1.35 1.34 1.35 1.32 1.35
1.08 1.09 1.11 1.10 1.17 1.20 1.18 1.20 1.23 1.22 1.16 1.29 1.18 1.11 1.08 1.08 1.06 1.02 1.00 0.96 0.92 0.91 0.85 0.87 0.84 0.83 0.89 0.96 1.01 1.03 1.03 1.04 1.03 1.08 1.19 1.13 1.10 1.04 1.09 1.16 1.14 1.19 1.18 1.15 1.16 1.17 1.17 1.11 1.10 1.13 1.16 1.05 1.14 1.16 1.24 1.24 1.09 1.03 0.89 0.95 0.96 0.91 0.81 0.90 0.97 1.14 1.27 1.33 1.31 1.25 1.29 1.32 1.41 1.36 1.38 1.29 1.36 1.37 1.33 1.33 1.29 1.27 1.27 1.25 1.27
1.02 1.03 1.06 1.11 1.16 1.17 1.23 1.22 1.17 1.19 1.12 1.29 1.23 1.10 1.08 1.04 0.98 0.97 0.93 0.83 0.75 0.75 0.80 0.80 0.85 0.80 0.75 0.82 0.88 0.95 0.97 0.97 1.00 0.99 1.02 0.98 1.00 1.03 1.06 1.08 1.11 1.10 1.12 1.14 1.10 1.21 1.25 1.18 1.08 1.12 1.13 1.13 1.08 1.12 1.16 1.20 1.15 1.18 1.00 0.84 0.90 0.84 0.83 0.92 0.99 1.01 1.16 1.14 1.22 1.26 1.31 1.30 1.30 1.30 1.29 1.29 1.28 1.30 1.31 1.22 1.20 1.17 1.17 1.18 1.20
1.03 1.02 1.13 1.15 1.20 1.13 1.13 1.09 1.12 1.12 1.07 1.25 1.21 1.08 1.06 0.96 0.85 0.79 0.67 0.67 0.69 0.74 0.74 0.69 0.68 0.79 0.79 0.76 0.77 0.85 0.90 0.92 0.95 0.98 0.95 0.91 0.82 0.72 0.69 0.78 0.79 0.94 1.00 1.05 1.09 1.07 1.07 1.10 1.12 1.10 1.12 1.12 1.08 1.06 1.01 1.14 1.15 1.13 1.11 1.05 0.99 0.80 0.81 0.94 0.89 0.78 1.08 1.16 1.19 1.19 1.21 1.27 1.22 1.22 1.25 1.31 1.24 1.16 1.14 1.08 1.06 1.05 1.06 1.08 1.14
1.08 1.05 1.07 1.14 1.20 1.15 1.11 1.06 1.04 1.09 1.04 1.21 1.23 1.01 0.98 0.89 0.83 0.77 0.76 0.75 0.75 0.75 0.76 0.83 0.82 0.76 0.72 0.78 0.77 0.82 0.84 0.86 0.91 0.89 0.83 0.76 0.72 0.75 0.78 0.81 0.78 0.77 0.80 0.87 0.97 1.01 1.03 1.13 1.14 1.09 1.05 1.08 1.02 0.93 0.96 1.02 1.07 1.06 1.06 1.08 1.06 1.12 1.08 0.92 0.82 0.87 0.81 1.00 1.12 1.15 1.17 1.16 1.15 1.12 1.12 1.10 1.02 0.99 0.99 1.00 0.99 0.99 1.00 1.00 1.01
1.21 1.22 1.10 1.18 1.18 1.21 1.11 1.09 1.11 1.07 1.07 1.23 1.22 1.13 0.95 0.88 0.87 0.83 0.82 0.80 0.78 0.74 0.81 0.83 0.82 0.79 0.77 0.75 0.78 0.79 0.80 0.80 0.80 0.82 0.81 0.78 0.82 0.82 0.88 0.89 0.87 0.85 0.84 0.88 0.91 0.96 0.99 1.06 1.03 0.99 1.01 1.01 1.02 1.01 0.99 1.09 0.89 0.95 1.04 1.00 1.00 1.00 1.06 1.06 1.02 0.93 0.84 0.79 0.90 1.05 1.10 1.08 1.03 0.99 0.98 0.97 0.92 0.92 0.92 0.90 0.91 0.92 0.92 0.92 0.92
1.25 1.21 1.19 1.27 1.28 1.30 1.25 1.21 1.23 1.08 1.23 1.27 1.23 1.17 0.98 0.91 0.89 0.84 0.84 0.87 0.80 0.79 0.80 0.77 0.77 0.79 0.77 0.81 0.85 0.84 0.86 0.86 0.86 0.77 0.84 0.75 0.80 0.85 0.89 0.90 0.90 0.89 0.87 0.91 0.96 0.97 0.95 0.95 0.90 0.93 1.02 1.03 1.00 1.07 1.04 0.97 0.91 1.00 0.87 0.91 1.00 0.97 1.03 1.11 1.11 1.00 0.90 0.82 0.82 0.85 0.88 0.97 0.96 0.93 0.93 0.94 0.93 0.92 0.91 0.88 0.86 0.85 0.82 0.78 0.78
1.31 1.33 1.35 1.41 1.42 1.37 1.32 1.25 1.16 1.29 1.28 1.30 1.29 1.11 1.01 0.98 0.91 0.88 0.84 0.78 0.78 0.78 0.76 0.73 0.72 0.74 0.76 0.82 0.83 0.84 0.83 0.83 0.84 0.89 0.86 0.83 0.78 0.83 0.89 0.91 0.91 0.88 0.87 0.91 0.96 0.94 0.92 0.89 0.88 0.88 0.89 0.89 0.90 0.93 0.95 0.99 0.91 1.08 0.97 1.00 0.93 0.92 0.97 0.96 0.95 1.03 0.89 0.90 0.82 0.82 0.87 0.82 0.77 0.84 0.91 0.89 0.89 0.88 0.84 0.78 0.71 0.72 0.73 0.72 0.67
1.29 1.25 1.35 1.42 1.34 1.27 1.17 1.15 1.14 1.16 1.16 1.16 1.19 1.24 1.06 1.02 0.98 0.93 0.83 0.77 0.77 0.76 0.71 0.68 0.69 0.71 0.71 0.75 0.81 0.83 0.85 0.84 0.84 0.84 0.89 0.87 0.80 0.83 0.86 0.88 0.88 0.87 0.83 0.91 0.89 0.85 0.86 0.83 0.84 0.87 0.86 0.84 0.85 0.88 0.89 0.92 1.00 0.99 0.91 1.01 0.93 0.92 0.93 0.90 0.89 0.95 0.97 0.85 0.89 0.85 0.88 0.89 0.82 0.78 0.80 0.79 0.73 0.66 0.63 0.58 0.56 0.59 0.60 0.60 0.60
Wind_Speed
9 9 10 10 9 9 9 8 8 8 8 8 8 8 8 8 7 7 7 6 6 5 4 4 3 3 2 1 1 1 1 1 0 0 1 2 2 3 3 3 2 3 3 2 2 2 3 3 3 3 3 3 3 4 5 5 6 6 7 7 8 9 9 9 10 10 11 11 11 10 10 10 10 10 10 10 10 11 11 10 9 9 9 9 9
9 9 10 10 10 9 9 8 8 8 8 8 8 8 8 8 8 8 7 7 7 6 5 5 4 4 3 2 2 2 1 1 1 1 1 2 2 3 3 3 3 3 3 3 3 3 3 3 3 3 3 3 4 4 5 5 6 6 6 7 8 8 9 9 10 10 11 11 11 10 10 10 10 10 10 10 10 11 11 11 11 10 10 9 9
9 9 10 10 9 9 9 8 8 8 8 8 8 9 9 9 9 9 8 8 7 7 6 6 5 5 4 3 3 3 2 2 2 2 2 2 3 3 4 4 4 4 4 4 3 3 3 3 3 3 3 4 4 4 4 5 5 6 6 7 7 8 9 9 9 10 11 11 11 11 11 10 10 9 10 10 11 11 11 12 12 11 11 10 10
9 9 10 10 9 9 9 8 8 8 8 8 9 9 9 9 9 9 9 8 8 8 7 6 6 5 5 4 4 3 3 3 3 3 3 3 3 4 5 5 5 5 4 4 4 4 4 4 4 4 4 4 4 4 5 5 5 5 6 6 7 7 8 9 9 10 10 10 10 10 10 10 10 9 9 10 10 11 12 12 12 12 11 11 10
8 9 9 9 9 9 9 8 8 8 8 9 9 9 10 10 10 10 9 9 9 9 8 7 7 6 5 5 4 4 4 3 3 3 3 4 4 4 5 5 6 5 5 5 5 5 5 5 5 5 5 5 5 5 5 5 5 5 5 6 6 7 8 8 9 10 10 9 9 8 9 9 9 9 9 9 10 10 11 11 11 11 11 11 10
8 9 9 9 9 9 9 9 9 9 9 9 9 10 10 10 10 10 10 10 10 9 9 8 7 7 6 6 5 4 4 4 4 3 4 4 4 4 5 6 6 6 6 5 6 6 6 6 6 6 5 5 5 5 5 4 4 4 4 5 5 6 7 7 8 9 8 8 7 7 8 8 8 9 9 9 9 10 10 11 11 11 11 10 10
9 9 9 9 9 9 9 9 9 9 9 9 10 10 10 10 11 11 11 11 10 10 9 8 8 7 7 6 5 5 5 4 4 4 4 4 4 4 5 6 6 6 6 6 6 7 7 7 7 7 7 6 6 5 5 5 4 4 4 4 5 5 6 6 7 7 6 6 6 7 7 7 7 8 8 8 8 9 9 10 10 10 10 10 10
9 9 9 9 9 10 10 9 9 9 9 9 10 10 10 11 11 11 11 11 11 10 10 9 8 8 7 7 6 5 5 5 4 4 4 4 5 5 5 5 6 6 6 6 7 7 7 7 7 8 8 7 7 6 5 5 4 4 3 3 4 5 5 5 6 6 6 6 6 7 7 7 6 7 8 8 8 8 8 9 10 10 10 10 10
9 10 9 9 10 10 10 10 10 10 10 10 10 10 11 11 11 11 12 12 11 11 10 9 9 8 8 7 7 6 5 5 5 5 4 4 5 5 5 5 5 6 6 7 7 7 8 8 8 9 9 8 8 7 6 5 4 3 3 3 3 4 4 5 5 5 5 5 6 6 7 6 6 7 7 7 7 8 8 9 9 10 10 10 10
9 9 9 9 10 10 10 10 10 10 10 10 10 10 11 11 11 12 12 12 12 12 11 10 9 9 8 8 7 6 6 6 6 5 5 4 4 4 5 5 5 6 6 6 7 8 8 9 9 9 10 9 8 8 7 5 4 4 3 3 3 3 3 3 3 3 3 5 5 6 6 6 6 6 6 7 7 8 8 8 9 9 9 9 10
9 9 9 9 10 10 10 10 11 11 11 10 10 11 11 12 12 12 12 13 12 12 11 10 10 9 9 8 7 7 7 7 7 6 6 5 4 4 4 5 5 6 6 7 7 8 8 10 10 10 10 10 9 8 7 6 5 4 4 4 3 3 2 2 2 2 3 4 5 5 5 5 5 6 6 7 7 7 8 8 8 8 9 9 9
9 9 9 10 10 11 11 11 11 11 11 11 11 11 12 12 12 12 12 13 13 12 12 11 10 9 9 9 8 8 8 8 8 7 7 6 5 4 4 5 6 6 7 7 7 8 9 10 10 10 11 11 10 9 8 7 7 6 5 5 4 3 2 2 1 1 3 4 4 5 5 5 5 6 6 6 6 7 7 7 8 8 8 8 9
9 9 9 10 11 11 11 11 12 12 12 12 12 12 12 12 13 13 13 13 13 13 12 11 10 9 9 9 8 8 8 9 8 8 7 7 6 5 5 6 6 6 7 7 8 8 9 10 11 11 11 11 11 11 10 9 8 8 7 6 5 4 3 2 1 2 2 3 3 4 4 4 5 5 5 5 6 6 6 7 7 7 7 8 8
9 9 9 10 11 11 12 12 12 12 12 12 12 12 12 13 13 13 13 13 13 13 12 12 11 10 10 10 9 8 8 9 9 9 8 7 7 6 6 6 6 6 7 8 8 9 10 11 11 11 11 12 12 11 11 10 9 9 8 7 6 6 4 3 2 2 3 3 3 3 3 3 4 4 5 5 5 5 6 6 6 6 7 7 7
10 10 9 10 11 11 12 12 12 12 12 12 12 13 13 13 13 14 14 14 14 14 13 12 12 11 11 10 9 9 9 9 9 9 9 8 7 7 7 7 6 6 7 8 9 10 11 11 12 12 12 12 12 12 12 11 11 10 9 8 8 7 6 5 4 4 3 3 3 3 3 3 3 3 4 4 4 4 4 5 5 6 6 6 6
10 10 10 10 11 12 12 13 12 12 12 12 13 13 13 13 14 14 15 15 15 14 13 13 12 11 11 10 10 10 10 10 10 10 9 8 7 7 7 7 6 6 7 8 10 10 10 11 12 12 12 12 12 12 12 12 12 11 11 10 9 9 7 6 6 5 4 4 4 3 3 3 2 2 3 3 3 3 3 4 4 4 5 5 5
10 10 10 11 11 12 12 13 13 13 13 13 13 13 14 14 14 14 15 15 14 14 13 12 12 11 11 11 10 10 10 10 10 10 9 8 8 8 7 6 6 6 6 7 9 10 10 11 12 12 12 12 13 13 13 13 13 12 12 11 11 10 9 8 7 6 6 5 5 4 4 3 3 3 2 2 2 2 2 2 3 3 3 4 4
10 10 11 11 11 12 12 13 13 13 13 13 13 13 13 13 13 13 13 14 14 13 13 12 11 11 11 11 11 11 11 11 11 10 10 9 9 8 7 7 6 6 6 7 8 9 10 11 11 12 12 12 13 14 14 13 13 13 12 12 12 11 10 9 8 8 7 6 6 5 5 4 4 4 3 2 2 2 1 1 1 2 2 3 3
10 11 11 11 11 12 12 13 13 13 13 13 13 13 12 12 12 12 13 13 13 12 12 11 11 11 11 11 11 11 11 11 10 10 10 10 9 8 8 7 7 7 7 7 7 7 8 10 10 11 12 12 13 14 14 14 14 14 13 13 13 12 11 10 10 9 9 8 7 7 6 6 6 5 4 4 3 3 2 2 1 0 1 1 1
11 11 11 12 12 12 13 13 13 13 13 13 13 12 11 11 12 12 12 12 11 11 11 10 10 10 11 12 12 11 11 11 11 10 10 10 9 9 8 7 7 7 7 7 7 7 7 8 9 10 12 12 13 14 14 14 14 14 14 14 14 13 12 11 11 11 10 9 8 8 7 7 7 6 6 5 4 4 4 3 3 2 1 1 0
12 12 12 12 12 12 13 13 13 13 13 13 11 10 10 11 11 12 11 10 10 10 10 10 10 10 11 12 12 12 12 11 11 11 10 10 9 9 8 8 8 7 7 7 7 7 7 8 9 10 11 12 13 14 14 15 15 15 15 15 15 15 13 12 12 12 11 10 10 9 9 9 9 8 7 7 6 5 5 5 4 4 3 3 2
12 12 12 12 12 13 13 13 13 13 12 10 9 9 9 9 10 11 10 10 10 10 10 10 10 10 10 11 11 11 11 11 11 11 10 10 9 9 9 8 8 7 7 7 8 8 8 8 9 9 10 12 13 13 14 15 16 16 16 16 16 15 15 14 13 13 12 11 11 11 10 10 10 9 9 8 8 7 7 6 6 5 5 4 4
11 12 12 12 13 13 14 14 14 12 9 8 9 9 9 8 9 9 9 10 10 10 11 11 10 10 10 11 11 11 11 11 10 9 9 9 9 10 9 9 8 8 8 8 8 9 9 10 10 9 10 10 12 13 14 15 16 16 16 16 17 16 15 15 14 14 13 12 12 12 11 11 11 11 10 10 9 9 8 8 7 7 6 6 5
11 11 12 12 12 12 13 14 13 11 9 8 9 9 9 9 9 10 10 10 10 10 11 11 11 11 11 11 11 10 10 9 8 8 9 9 9 10 10 9 9 9 9 9 9 9 10 10 10 10 10 11 11 13 15 15 15 16 16 17 17 16 16 15 15 15 14 13 13 13 13 12 12 12 12 11 11 10 10 9 8 8 8 7 6
10 11 11 11 11 12 12 11 10 9 8 8 9 9 9 10 10 10 10 10 10 10 11 11 11 11 11 11 10 10 9 8 9 9 9 9 10 11 11 11 11 10 10 10 10 10 10 10 10 11 11 11 12 13 14 14 15 15 16 16 16 16 16 16 16 15 14 14 14 14 14 13 13 13 13 12 12 11 11 10 10 9 9 8 8
10 10 10 10 10 11 11 9 7 7 8 9 10 10 10 10 10 10 11 11 11 11 10 9 10 10 11 11 11 10 9 9 10 10 10 11 11 11 11 11 11 11 11 11 10 10 10 10 9 10 10 10 11 12 12 13 14 15 15 15 15 16 16 16 16 15 14 14 14 14 14 14 14 14 14 13 13 12 12 11 11 10 9 9 9
11 10 10 10 9 9 8 7 7 8 9 9 10 10 10 10 10 10 11 11 10 9 9 8 9 10 11 11 10 10 9 9 9 9 10 11 10 10 10 10 10 10 10 10 10 10 10 9 9 9 9 10 10 11 12 12 13 13 14 14 15 15 15 15 15 14 14 14 14 14 15 15 15 14 14 14 13 13 13 12 12 11 11 10 10
10 10 10 10 8 8 8 7 8 9 9 9 9 9 10 10 10 10 10 10 9 9 9 9 9 10 11 10 10 9 9 8 9 9 9 10 9 9 10 10 10 10 10 10 10 11 11 10 10 9 8 9 9 10 11 12 12 12 13 13 14 14 14 14 14 14 14 14 14 14 15 15 15 15 15 14 14 14 13 13 13 12 12 11 11
10 11 10 10 9 9 8 8 9 9 10 9 9 9 9 9 9 9 9 9 9 9 9 9 10 10 11 10 10 10 9 9 10 10 10 10 9 9 10 10 10 10 9 10 10 11 11 10 9 9 8 8 8 9 10 11 11 12 12 13 13 13 13 13 14 13 13 13 13 14 14 14 15 15 15 15 14 14 14 14 13 13 12 12 12
11 11 10 10 11 10 9 8 8 8 9 9 9 9 8 9 9 9 9 9 9 9 9 9 10 10 11 10 10 10 10 10 10 10 10 10 10 10 10 10 10 10 10 10 10 10 10 9 9 8 8 8 8 8 9 9 10 11 11 12 12 13 13 13 13 13 13 13 12 13 13 13 14 14 14 14 14 14 14 14 13 13 13 13 13
11 12 11 11 11 10 10 9 8 8 8 8 8 8 8 8 9 9 9 9 9 9 9 10 10 11 10 10 10 10 10 10 10 10 10 11 11 10 11 11 11 12 11 10 10 10 9 9 9 8 7 7 7 8 8 9 9 10 10 11 11 11 11 12 12 12 12 12 11 11 12 12 12 12 12 12 12 13 13 13 13 13 13 13 13
12 12 12 12 12 11 11 10 9 8 8 8 8 8 8 8 8 8 8 8 8 8 9 10 10 10 10 10 10 10 10 10 10 10 10 10 10 10 10 10 11 11 11 10 9 9 8 8 8 7 7 7 7 7 8 8 9 9 9 9 10 10 10 10 11 11 11 11 10 10 10 10 10 11 12 12 12 12 12 13 13 13 13 13 13
12 12 12 12 12 12 12 11 11 10 9 9 9 9 8 8 8 8 8 8 8 8 9 9 9 9 10 10 10 10 10 10 10 10 10 10 10 10 10 10 10 10 10 9 8 8 8 8 8 7 7 6 7 7 7 8 8 8 9 9 9 9 10 9 10 10 10 10 10 9 9 9 9 10 11 11 12 12 12 13 13 13 13 13 13
12 12 12 12 12 12 12 12 12 11 10 9 9 9 9 8 8 8 8 8 8 9 9 9 9 9 10 10 10 11 11 10 10 10 10 10 10 10 10 10 10 9 9 9 8 8 8 8 8 7 7 7 7 7 7 7 8 8 8 8 8 9 9 9 9 10 9 8 8 8 8 9 9 10 10 11 11 12 12 12 12 12 12 13 13
13 13 13 12 12 13 13 12 12 11 11 10 10 9 9 8 7 7 8 8 8 8 8 8 8 8 9 9 10 10 11 11 10 10 10 9 9 9 10 9 9 9 9 9 8 8 7 7 7 7 7 7 6 7 7 7 7 7 7 8 8 8 8 9 9 8 8 7 7 8 8 9 9 9 10 10 10 11 11 11 11 12 12 12 12
14 13 13 13 13 12 12 12 12 12 11 11 10 9 9 8 7 7 7 7 7 7 6 6 7 7 7 8 8 9 9 10 10 10 10 10 9 9 9 8 8 8 8 8 8 8 7 7 6 6 7 7 7 7 7 7 6 6 7 7 7 7 8 8 8 7 7 8 8 8 8 8 8 8 8 9 9 10 10 10 11 11 11 12 12
14 14 14 13 13 12 12 12 12 12 12 11 10 9 9 7 7 6 6 6 5 5 5 5 5 6 6 6 7 7 8 8 9 9 10 9 9 8 8 8 7 7 7 7 7 7 7 7 7 7 8 8 8 8 7 6 6 6 6 7 7 7 7 7 7 7 7 8 8 8 8 8 9 8 8 8 8 9 10 10 10 11 11 11 12
14 14 14 14 13 12 12 12 12 12 11 11 11 10 8 7 6 6 5 5 4 3 3 4 4 5 5 5 5 6 6 7 7 8 8 8 8 8 7 6 6 6 6 6 6 7 7 7 7 8 8 8 8 8 8 7 7 7 7 7 7 7 7 7 7 7 8 8 8 8 8 8 9 9 9 9 9 9 10 10 10 10 11 11 11
15 14 14 14 13 12 12 12 12 12 11 11 11 10 9 8 7 6 6 5 3 3 3 4 4 4 4 4 4 5 5 6 6 7 7 7 7 7 7 6 6 6 7 6 6 7 8 7 8 8 9 9 8 9 9 8 7 7 7 7 7 7 7 8 8 8 8 9 9 9 9 10 10 10 10 10 10 10 10 9 10 10 10 11 11
15 15 14 14 14 13 13 13 13 13 12 12 11 11 10 9 8 7 6 5 4 3 3 3 3 3 3 3 3 4 4 5 5 6 6 7 7 7 7 7 6 7 7 7 7 7 8 8 8 8 9 9 9 9 9 8 7 6 7 7 7 7 7 7 8 8 8 8 9 9 10 10 11 10 10 10 10 9 9 9 9 9 9 9 10
14 15 15 15 14 14 13 13 14 14 13 12 12 11 10 9 8 7 6 4 3 3 3 3 3 3 3 3 3 4 4 4 4 5 5 6 7 7 7 7 7 7 7 7 7 7 8 8 8 8 9 9 9 10 9 8 7 7 7 7 7 7 7 7 8 7 7 8 8 9 9 10 10 10 9 9 9 8 8 8 8 8 8 8 9
15 15 15 15 15 15 15 15 15 15 14 13 12 12 11 9 8 7 6 4 4 3 3 3 3 3 3 3 3 3 3 4 4 4 5 6 6 7 7 7 7 7 7 7 7 8 8 8 8 8 9 10 10 10 10 8 7 8 8 7 7 7 7 7 7 7 7 7 8 8 8 9 9 8 8 7 7 7 7 7 7 8 8 8 8
16 16 16 16 16 16 16 16 16 15 15 14 13 12 11 10 8 7 6 4 4 3 3 3 3 3 4 4 4 4 4 4 4 4 5 5 6 6 7 7 7 8 8 8 8 8 8 8 9 9 9 10 10 11 10 9 8 8 8 8 8 8 7 8 7 7 8 7 7 7 8 8 8 7 6 6 6 6 5 6 6 6 7 8 8
17 16 17 17 16 17 17 17 16 16 16 15 14 13 12 10 8 7 5 4 4 4 3 3 3 3 4 4 5 5 4 4 4 4 4 5 5 5 6 6 7 8 8 8 8 8 8 8 9 10 10 10 10 10 10 9 9 9 8 8 8 8 7 8 8 8 8 7 7 7 7 7 7 6 6 6 6 5 5 5 6 6 7 7 8
17 17 17 17 17 17 18 17 17 16 16 16 15 13 12 10 9 7 6 5 5 4 3 3 3 3 4 5 5 5 5 5 5 5 4 5 5 6 6 7 7 8 8 8 8 8 8 8 9 10 10 10 10 10 10 10 10 9 8 8 8 7 7 7 7 7 7 7 7 7 7 7 7 6 6 6 5 5 5 5 6 6 6 7 7
17 17 17 18 18 18 18 17 16 16 17 17 16 14 12 11 10 8 7 6 5 5 4 4 4 4 4 5 5 5 5 5 5 5 5 5 5 6 6 7 8 8 8 8 8 8 8 9 10 10 11 11 10 10 10 10 10 10 9 9 9 8 7 8 8 7 7 7 7 7 7 7 6 6 6 5 5 6 6 6 6 6 7 7 7
17 17 17 18 18 18 18 17 17 17 17 18 17 14 12 11 10 9 8 7 6 5 5 5 5 5 6 6 6 5 5 5 5 5 6 6 6 6 6 6 7 8 8 8 8 8 8 9 10 10 10 10 10 10 10 10 10 10 10 10 9 8 8 8 8 8 7 8 7 6 6 6 6 6 6 6 6 7 7 7 7 7 7 7 8
17 18 18 19 19 19 18 17 16 17 18 19 17 13 11 11 10 9 8 7 6 6 5 5 6 6 6 6 6 6 6 6 6 6 6 6 7 6 6 6 6 6 7 7 7 8 8 8 9 10 10 10 10 10 10 10 10 10 10 10 9 9 9 9 9 8 8 8 8 7 7 7 6 6 7 7 7 7 8 8 8 8 8 8 8
17 18 19 19 19 18 17 16 15 17 19 19 15 12 11 10 9 8 7 7 6 6 6 6 6 6 6 6 6 6 6 7 7 7 7 7 7 7 7 6 5 5 6 6 6 7 7 8 8 9 9 9 9 10 9 10 9 9 9 10 9 9 9 9 9 8 8 8 8 8 8 7 7 7 7 8 8 8 8 8 9 8 8 9 9
16 17 17 17 16 16 14 13 13 15 16 15 13 11 11 10 9 8 7 7 6 6 6 6 6 6 6 6 7 7 8 8 8 8 8 7 7 7 7 6 6 5 5 6 6 6 7 7 7 8 8 8 9 9 9 9 9 9 8 9 9 9 9 9 9 9 9 9 9 8 8 7 7 7 8 8 8 8 8 8 9 9 9 9 9
14 15 14 13 14 13 12 12 12 13 14 13 11 10 9 9 9 8 8 8 7 7 6 6 6 7 7 8 8 9 9 10 10 10 9 9 8 8 8 7 6 6 6 6 6 7 7 7 7 7 7 7 8 8 8 8 8 8 8 8 9 9 9 9 9 9 8 9 8 7 7 7 7 7 7 8 8 8 8 8 8 9 9 9 10
Wind_Direction
236 239 232 228 231 234 237 240 244 243 242 239 237 235 232 231 231 232 231 230 231 232 233 233 237 245 248 256 272 289 328 347 335 161 185 196 201 203 201 202 194 180 165 154 152 151 150 148 143 132 122 114 106 105 104 100 94 88 83 79 77 75 75 75 77 78 79 80 80 80 77 76 74 70 69 69 68 68 67 66 70 74 75 79 80
227 232 229 225 229 232 237 242 244 242 242 239 238 236 233 232 231 232 232 232 231 232 232 233 236 239 244 249 256 261 271 278 266 263 230 215 217 218 214 211 204 191 179 174 171 167 165 162 156 144 135 129 122 117 112 104 99 93 86 82 79 79 79 79 80 80 80 81 81 80 77 76 73 71 71 71 70 69 65 65 70 75 76 78 81
226 229 223 222 228 232 238 243 243 243 242 241 239 236 235 234 232 233 232 232 231 231 232 235 236 236 243 248 251 252 256 259 256 262 254 232 227 229 225 216 206 197 192 194 194 192 188 183 174 163 153 142 136 131 121 110 103 95 89 85 81 82 82 82 83 83 82 80 81 81 78 77 74 72 71 71 71 70 66 66 69 72 75 78 81
226 225 220 221 228 233 239 241 243 243 243 243 240 237 236 235 234 233 232 232 232 232 234 237 236 238 245 248 248 250 254 255 254 258 257 246 237 233 228 218 208 204 204 206 205 206 202 196 188 179 169 157 151 144 132 120 109 100 93 88 85 85 84 84 85 85 82 80 84 79 72 73 73 72 71 71 72 72 69 69 70 71 74 77 79
224 223 220 221 227 233 238 240 243 245 246 244 241 238 236 235 233 232 232 232 232 233 237 238 238 241 246 247 248 251 253 253 250 252 256 250 243 236 227 218 212 213 215 213 211 211 209 203 197 189 179 170 163 152 142 130 119 108 100 94 89 87 88 89 86 82 81 83 86 78 70 70 72 74 74 73 73 73 71 70 70 71 73 75 78
225 226 221 224 230 234 238 242 246 248 249 247 244 240 237 234 231 231 232 232 233 235 236 238 240 242 243 245 248 250 250 251 246 245 251 246 242 238 226 220 219 221 221 217 214 212 210 208 203 194 185 179 170 161 153 143 132 119 108 100 92 90 92 91 85 81 81 81 80 76 75 72 70 75 75 74 73 73 73 70 71 72 73 73 76
227 227 225 229 233 236 240 244 248 252 251 249 246 241 238 234 232 231 231 232 233 236 236 238 243 242 240 243 247 248 249 249 243 241 245 242 238 234 228 226 226 223 220 218 215 212 209 208 206 197 189 184 175 170 164 156 148 133 118 107 101 98 96 92 85 81 79 76 75 77 80 76 71 75 75 74 75 75 75 73 73 73 73 74 76
230 230 230 235 236 237 241 245 250 253 252 249 246 242 239 235 233 231 231 232 233 235 237 240 242 239 238 241 245 246 247 247 241 238 239 240 234 231 233 231 227 223 219 218 216 212 210 209 208 200 192 187 182 178 174 168 163 149 134 121 114 107 101 95 86 79 74 72 78 78 79 79 74 76 76 75 74 75 78 78 75 73 73 74 75
232 232 233 239 238 237 241 246 249 251 251 249 246 243 239 235 232 231 232 233 234 235 236 238 237 236 238 239 243 244 242 241 240 237 234 234 234 233 236 233 225 223 220 218 217 215 213 211 209 203 195 191 187 184 180 176 173 165 153 140 131 121 113 99 85 78 72 73 79 78 78 83 78 76 78 76 73 74 79 80 77 74 73 73 75
230 233 235 242 238 237 242 244 247 249 249 248 244 241 238 236 233 233 234 234 234 234 233 234 234 235 235 236 239 240 237 236 238 238 235 235 239 239 237 234 228 225 223 220 218 216 216 214 210 204 198 194 192 188 186 185 186 185 177 164 156 142 127 105 84 71 73 78 82 84 84 87 81 77 80 78 76 75 78 79 77 76 76 75 77
230 234 238 242 236 237 242 244 246 247 249 247 243 240 237 235 235 235 235 234 232 232 232 233 233 234 235 236 235 236 236 236 239 239 241 242 243 243 240 238 234 230 227 225 222 218 218 216 211 206 201 197 196 195 195 197 201 204 199 189 183 172 156 130 92 74 89 90 89 93 88 85 82 82 85 82 80 76 78 80 79 79 78 78 78
234 237 240 240 236 238 242 244 247 248 249 247 243 240 237 236 236 235 234 232 231 231 231 232 233 234 236 235 232 234 235 235 239 240 241 241 242 244 243 243 241 234 229 229 226 221 219 215 210 207 204 201 203 206 208 209 212 216 213 207 203 200 191 166 140 114 108 103 101 103 95 87 86 86 87 86 82 77 77 78 79 80 81 80 79
238 240 241 238 237 240 244 246 248 250 249 247 244 240 237 235 234 233 232 230 230 230 230 231 232 234 236 232 230 234 234 234 238 240 240 237 240 242 240 242 242 235 230 227 225 223 218 213 210 209 209 209 211 213 215 216 217 221 220 217 215 214 207 190 189 173 137 124 120 117 110 97 93 91 89 89 84 79 77 77 78 80 81 81 79
242 244 243 240 239 242 246 249 250 250 249 247 244 241 238 235 233 232 231 230 230 230 230 230 231 234 233 230 231 234 235 236 237 238 238 235 236 237 237 241 241 234 228 224 223 222 214 209 210 213 215 216 218 218 219 220 221 223 223 224 222 220 216 210 213 190 166 156 140 134 129 110 103 100 96 94 87 82 78 77 77 79 81 81 80
244 246 246 245 243 244 247 250 251 251 249 247 245 243 239 236 234 232 231 231 230 231 231 231 232 232 229 229 231 234 236 237 235 235 234 234 234 235 239 241 240 235 229 225 223 221 215 211 212 217 220 220 221 222 221 222 224 225 226 228 227 225 224 223 225 206 193 190 166 160 157 133 123 117 109 104 95 89 83 78 76 78 80 80 81
245 246 249 249 246 246 249 251 251 250 249 247 246 243 240 237 234 232 231 230 230 230 231 232 232 229 228 230 232 235 237 236 233 232 231 231 233 237 240 241 239 236 232 229 226 222 219 217 218 222 226 224 223 224 224 224 226 227 227 229 230 229 227 224 227 221 212 207 193 194 194 174 162 148 130 119 110 104 94 83 78 76 77 80 81
245 248 252 252 249 249 251 251 249 249 249 248 247 244 241 237 233 231 229 228 227 227 228 228 227 228 228 231 234 235 234 234 232 231 231 232 235 236 237 240 235 232 230 230 227 223 223 224 225 227 230 228 225 225 225 224 226 228 228 228 229 229 227 226 229 228 219 214 210 208 208 199 196 185 169 154 138 130 117 98 84 77 74 79 82
247 253 256 254 252 252 252 251 248 248 249 250 248 243 239 236 231 227 225 222 220 221 221 222 225 227 228 230 234 234 232 232 232 232 234 235 234 232 233 236 232 228 227 229 228 227 228 229 230 229 230 230 226 226 225 225 226 227 227 226 228 229 229 230 232 230 224 224 219 213 217 218 217 212 204 202 191 181 170 146 103 85 76 78 79
251 255 256 256 254 253 254 252 248 248 250 253 250 241 238 236 229 225 223 217 213 213 215 222 227 227 227 231 233 233 233 232 234 235 235 234 230 229 231 231 230 228 228 229 230 231 232 232 232 231 231 232 230 228 227 227 227 227 227 226 227 228 231 234 233 231 229 230 223 222 230 229 226 225 221 223 223 220 218 221 223 187 90 72 68
253 256 257 257 255 253 256 253 249 251 252 255 248 235 232 234 231 226 220 212 207 208 216 225 226 227 231 234 235 234 234 235 237 235 231 230 228 229 230 230 230 231 231 231 233 234 236 236 235 235 233 233 233 231 229 228 228 228 227 226 226 228 233 237 234 233 234 233 227 230 236 233 231 231 229 232 235 237 237 238 242 246 247 255 332
255 256 259 258 254 254 256 254 251 253 253 251 240 224 228 236 229 217 212 210 206 211 221 224 224 231 234 233 234 234 234 234 233 230 228 228 229 230 232 233 234 233 234 234 237 239 241 243 241 239 236 234 233 232 232 231 230 229 228 227 227 230 235 236 235 236 238 235 232 236 240 237 235 234 234 238 240 242 244 245 247 249 254 255 266
257 256 260 258 254 255 255 253 253 253 248 236 223 223 233 229 214 208 213 214 212 221 225 224 231 236 234 232 236 237 235 231 228 228 228 229 231 233 235 238 239 239 239 240 243 245 245 247 246 244 239 235 232 232 236 235 232 230 229 228 228 233 235 234 236 238 238 235 235 239 241 240 238 237 238 240 242 245 247 248 248 249 254 258 263
256 256 258 257 256 256 254 253 251 246 237 224 221 228 227 215 210 215 221 221 223 230 227 231 240 238 236 237 240 241 236 232 229 230 232 235 237 238 241 243 245 246 247 249 250 250 249 249 248 245 239 235 233 234 238 237 233 230 229 229 230 233 234 234 237 239 238 237 238 240 241 241 241 241 241 241 244 247 248 248 248 248 250 255 262
256 257 256 257 258 257 256 253 244 234 229 227 224 223 223 223 225 227 229 231 229 230 234 241 242 237 236 234 237 234 226 228 234 239 243 244 245 246 248 249 252 252 253 255 254 253 252 250 248 244 240 239 238 236 235 235 233 231 229 230 232 233 233 235 238 240 237 237 240 242 242 243 244 243 244 244 245 246 248 248 248 249 248 251 257
255 257 257 258 259 256 256 249 232 218 219 226 226 225 228 231 230 229 230 229 230 235 240 241 235 229 224 222 228 226 223 234 246 253 255 256 256 253 252 253 255 254 254 255 253 252 253 251 248 245 243 242 239 236 234 232 231 231 230 231 233 233 234 236 239 240 238 239 243 243 243 243 243 244 245 246 246 246 247 247 248 249 249 249 251
254 259 256 255 256 255 254 241 221 211 220 230 232 233 233 231 232 231 231 233 237 237 233 229 224 219 218 222 229 232 240 250 256 258 259 264 263 258 256 256 255 253 253 255 253 252 253 249 243 241 239 238 237 234 233 231 230 230 231 231 232 232 234 237 240 241 240 242 243 243 244 244 243 243 244 246 246 246 246 247 247 248 249 249 249
254 258 252 254 258 254 252 238 226 227 233 237 235 236 236 235 237 237 236 235 231 222 216 218 218 219 227 233 237 242 250 256 260 259 259 265 263 260 259 254 254 255 253 256 255 252 252 246 239 238 237 236 235 233 231 230 230 230 230 230 231 232 235 237 240 242 241 242 242 243 245 245 245 244 244 245 245 245 245 246 247 248 249 248 247
254 252 247 252 257 251 250 241 234 237 239 239 238 239 238 237 237 236 231 222 216 213 214 219 223 229 236 242 247 249 251 256 261 260 261 265 261 258 258 256 260 257 251 257 258 254 253 247 242 240 237 235 234 232 231 229 229 229 229 229 229 230 234 237 239 242 241 241 242 243 245 246 246 245 244 244 244 243 244 245 246 247 248 247 247
250 246 245 248 254 251 246 241 238 240 239 237 238 235 233 232 228 226 220 215 217 220 222 226 232 238 243 249 252 250 253 258 261 261 262 264 261 260 261 262 264 259 256 262 261 259 255 247 240 236 234 233 232 232 229 227 227 229 230 229 229 231 233 236 239 242 242 241 242 244 245 246 247 246 245 244 243 243 243 245 245 246 247 247 247
245 242 244 246 251 248 240 239 240 238 235 233 231 229 228 226 222 220 218 217 220 223 229 234 237 243 248 251 253 254 256 259 262 262 261 262 261 264 264 262 262 263 265 264 263 267 260 246 237 231 230 232 230 229 227 224 224 226 229 229 230 233 234 236 239 242 241 240 242 244 244 245 246 246 245 244 243 242 243 244 246 247 247 248 249
243 240 241 243 244 242 238 236 236 233 228 225 224 223 223 221 218 216 217 220 224 230 238 241 244 249 252 255 257 258 257 258 261 260 261 263 263 265 265 264 264 265 266 263 264 268 261 251 244 233 230 230 228 228 225 222 221 221 225 226 229 232 233 234 237 240 241 239 240 241 241 242 243 244 243 243 242 242 243 244 247 249 249 250 250
243 238 238 241 240 239 237 235 235 232 225 222 220 217 215 213 209 211 218 224 229 236 243 246 248 251 254 258 260 258 255 258 260 259 261 264 264 265 266 267 266 264 264 263 264 261 251 247 247 243 239 229 224 225 223 221 220 219 222 224 227 230 231 234 235 238 240 239 239 238 238 240 241 242 242 242 242 243 244 244 246 249 249 250 250
244 241 237 238 238 237 236 235 233 228 224 221 216 213 212 210 209 217 226 229 235 242 245 248 250 252 255 258 259 256 255 258 260 260 262 263 263 264 266 268 265 263 262 260 259 252 243 242 244 246 243 228 221 222 220 221 220 219 223 224 227 231 231 234 237 239 242 242 240 238 240 241 241 243 243 242 243 244 246 245 245 247 249 249 250
245 240 235 235 234 235 236 235 230 224 221 215 212 214 216 217 218 225 230 233 240 245 247 251 253 255 256 257 257 255 255 257 259 260 262 263 262 262 265 266 264 263 259 255 253 246 242 243 244 242 237 231 224 221 221 220 218 219 225 227 229 234 235 236 239 242 244 243 240 241 246 248 247 246 245 245 246 247 247 246 245 246 247 248 250
241 235 234 234 231 231 234 231 225 219 214 210 212 217 220 222 225 228 229 233 240 244 249 252 255 256 257 257 257 257 257 257 258 260 261 262 261 262 265 266 264 262 257 254 250 244 241 243 242 234 232 237 230 226 223 217 218 220 224 232 233 235 239 239 242 245 242 242 246 248 249 249 249 247 247 249 247 247 247 246 247 247 247 248 249
236 232 232 230 228 228 228 222 216 213 212 212 216 218 220 221 223 224 226 230 236 244 250 254 258 258 258 260 259 259 259 258 258 259 260 261 263 263 264 265 265 261 257 254 246 238 237 237 233 225 231 239 235 236 229 214 221 223 223 236 237 236 242 241 244 248 247 247 250 250 247 244 245 245 250 254 248 247 249 247 248 249 249 250 251
232 230 228 226 224 223 218 213 211 210 211 212 212 212 213 215 215 216 218 222 230 240 249 255 262 262 263 264 262 260 260 260 260 260 260 261 262 261 259 262 263 259 255 249 238 232 233 232 229 229 235 236 234 238 237 228 231 231 230 238 238 239 246 246 245 248 248 249 249 248 246 244 244 245 250 253 250 250 250 249 250 251 251 253 254
231 228 226 222 220 218 213 212 212 210 207 207 206 204 205 207 207 205 205 211 221 238 249 257 262 264 267 266 263 262 261 262 263 263 263 261 259 258 256 254 252 251 251 244 234 230 230 232 233 235 234 234 235 236 238 240 241 237 237 240 240 241 247 248 248 250 249 249 250 249 249 248 247 247 248 249 251 253 252 252 254 252 253 254 256
230 226 223 219 216 216 213 211 211 208 204 201 200 198 198 198 196 194 198 205 219 241 252 259 262 265 271 272 270 268 266 265 265 265 264 261 258 256 254 250 246 248 249 244 235 230 231 235 237 237 236 238 241 239 236 240 241 241 241 241 244 246 249 250 249 251 251 249 251 252 253 254 253 252 251 250 251 253 254 256 258 257 256 257 260
227 222 220 218 215 214 212 211 210 206 201 197 195 195 195 194 191 194 200 209 225 242 252 260 265 272 278 279 280 279 275 271 269 267 264 261 257 255 256 254 250 249 249 246 241 235 235 237 238 240 240 240 241 235 231 235 239 245 247 245 248 251 253 253 249 251 255 253 253 256 257 257 256 254 254 254 253 253 257 259 261 263 261 261 264
224 220 219 218 215 213 211 209 207 205 201 197 194 194 194 194 194 197 203 209 223 238 250 261 267 277 284 286 289 290 286 278 275 272 266 262 259 257 257 255 253 251 250 250 247 242 240 238 239 243 241 240 240 234 231 239 244 247 251 252 255 259 259 258 254 255 257 256 256 259 259 258 257 255 253 255 256 257 260 262 263 264 264 265 267
220 219 217 216 214 213 211 207 206 206 204 199 195 193 193 195 197 199 205 210 220 235 247 256 261 271 284 294 299 298 296 289 281 276 269 263 260 258 256 255 256 254 251 249 248 247 245 241 242 243 242 242 244 242 242 248 249 250 254 255 258 263 264 261 260 261 261 258 258 260 261 260 260 258 256 257 259 261 264 264 264 265 264 267 270
217 216 214 213 212 211 209 206 206 207 206 201 196 192 192 195 198 200 206 211 220 230 238 247 254 267 282 298 305 306 308 303 292 284 275 267 261 258 257 256 255 255 253 250 249 249 248 246 245 244 246 248 248 249 251 252 254 257 257 258 260 261 262 261 260 264 266 264 263 263 264 264 260 256 257 262 266 268 270 270 271 271 270 271 274
216 213 212 212 211 210 208 207 207 208 208 203 195 192 192 193 197 199 205 213 218 224 228 234 246 263 279 292 299 304 310 310 302 292 286 279 270 264 261 260 259 257 256 256 254 253 251 249 247 246 248 250 249 251 254 254 255 258 260 263 263 260 261 259 256 262 268 270 271 266 263 265 264 261 265 268 270 272 271 276 281 281 280 278 278
214 211 209 210 210 209 208 208 208 207 207 203 194 191 192 193 196 199 204 212 218 225 230 236 247 261 276 285 289 294 301 305 304 299 294 290 282 275 269 267 265 261 258 258 256 254 252 250 249 249 250 251 252 255 257 255 255 258 262 265 264 264 260 253 256 266 267 267 269 266 262 264 270 276 276 270 271 276 278 284 290 288 286 285 284
214 211 210 210 209 209 208 207 206 206 206 203 196 192 194 195 196 200 206 211 219 227 234 242 253 265 274 280 282 284 288 295 301 302 299 297 292 287 279 272 268 264 261 260 257 253 251 251 250 251 253 254 255 256 255 256 257 259 263 264 265 265 255 250 260 266 262 263 266 265 263 264 272 276 273 272 278 283 286 289 293 293 290 288 287
216 212 211 211 211 208 207 207 205 206 207 203 196 192 194 196 198 203 208 213 221 227 236 246 257 265 270 272 274 275 278 284 292 298 300 299 297 294 289 280 272 267 264 263 261 257 254 254 252 252 254 255 255 256 257 258 259 259 261 262 264 263 256 256 260 258 259 263 263 260 263 269 274 275 275 283 287 285 286 288 290 292 292 290 289
219 217 214 213 211 207 205 205 206 208 206 200 194 192 195 198 202 208 213 219 225 228 236 247 254 259 263 266 268 270 274 277 282 290 297 299 298 296 293 287 279 272 269 268 266 264 259 256 255 254 255 256 256 258 260 261 261 261 259 260 262 261 259 259 256 255 259 258 255 258 265 273 278 279 280 284 285 284 287 289 289 290 291 291 291
222 220 217 214 210 205 203 203 206 206 201 199 199 200 200 202 209 214 219 223 227 232 240 248 253 256 259 262 265 267 271 273 276 283 291 295 296 296 293 288 284 278 272 270 271 270 267 263 260 257 258 261 261 261 263 264 265 265 261 258 258 257 256 255 252 255 259 256 255 258 261 267 275 280 281 281 282 285 287 290 291 291 292 292 293
226 223 219 214 207 201 199 198 201 200 200 207 212 206 204 209 217 220 222 224 229 237 245 249 254 258 260 263 267 271 273 273 274 277 283 288 289 289 288 285 284 280 274 273 276 277 273 269 267 265 264 264 264 264 263 262 263 265 263 258 257 257 256 255 256 257 259 260 259 256 257 263 271 276 278 280 282 285 287 289 291 292 293 293 293
230 226 219 212 202 199 200 200 204 206 209 218 220 214 213 217 222 225 225 226 231 238 244 249 254 258 263 267 271 274 275 275 273 272 274 278 281 282 281 280 281 280 276 276 279 279 276 272 271 271 270 267 265 263 260 258 259 261 262 260 259 261 261 260 260 256 254 257 256 254 258 264 269 273 277 280 281 284 286 287 290 292 294 294 295